Weather History for Anoka County, MN

Change the Weather History Date:

Saturday, June 23, 2012

  Actual Average Record
Temperature  
Mean Temperature 74 °F -  
Max Temperature 78 °F 76 °F 93 °F (1997)
Min Temperature 69 °F 58 °F 46 °F (2004)
Cooling Degree Days 8    
Growing Degree Days 24 (Base 50)    
Moisture  
Dew Point 62 °F    
Average Humidity 65    
Maximum Humidity 73    
Minimum Humidity 51    
Precipitation  
Precipitation 0.00 in - - ()
Sea Level Pressure  
Sea Level Pressure 29.92 in    
Wind  
Wind Speed 8 mph (SSE)    
Max Wind Speed 14 mph    
Max Gust Speed -    
Visibility 10 miles    
Events      
Averages and records for this station are not official NWS values.
T = Trace of Precipitation, MM = Missing Value Source: NWS Daily Summary

Daily Weather History Graph

Daily Weather History Graph

Search for Another Location

Airport:

Trip Planner

Search our weather history database for the weather conditions in past years. The results will help you decide how hot, cold, wet, or windy it might be!

Date:

Astronomy

Jun. 23, 2012 Rise Set
Actual Time 5:26 AM CDT 9:04 PM CDT
Civil Twilight 4:48 AM CDT 9:41 PM CDT
Nautical Twilight 3:58 AM CDT 10:31 PM CDT
Astronomical Twilight 2:51 AM CDT 11:38 PM CDT
Moon 9:40 AM CDT (6/23) 11:19 PM CDT (6/23)
Length of Visible Light 16h 53m
Length of Day
15h 37m
Waxing Crescent, 16% of the Moon is Illuminated
Jun 23
Waxing Crescent
Jun 26
First Quarter
Jul 3
Full
Jul 10
Last Quarter
Jul 18
New

Hourly Weather History & Observations

Time (CDT) Temp. Dew Point Humidity Pressure Visibility Wind Dir Wind Speed Gust Speed Precip Events Conditions
7:50 AM 69.8 °F 60.8 °F 73% 29.93 in 10.0 mi SE 4.6 mph - N/A   Mostly Cloudy
8:45 AM 71.6 °F 60.8 °F 69% 29.93 in 10.0 mi SE 6.9 mph - N/A   Overcast
9:45 AM 73.4 °F 62.6 °F 69% 29.95 in 10.0 mi SSE 8.1 mph - N/A   Overcast
10:50 AM 75.2 °F 62.6 °F 65% 29.94 in 10.0 mi South 9.2 mph - N/A   Overcast
11:45 AM 77.0 °F 59.0 °F 54% 29.94 in 10.0 mi SSW 11.5 mph - N/A   Overcast
12:45 PM 75.2 °F 59.0 °F 57% 29.94 in 10.0 mi South 10.4 mph - N/A   Overcast
3:45 PM 77.0 °F 60.8 °F 57% 29.91 in 10.0 mi South 10.4 mph - N/A   Scattered Clouds
4:59 PM 78.8 °F 62.6 °F 57% 29.89 in 10.0 mi South 13.8 mph - N/A   Scattered Clouds
5:45 PM 78.8 °F 59.0 °F 51% 29.90 in 10.0 mi South 13.8 mph - N/A   Mostly Cloudy
6:45 PM 77.0 °F 60.8 °F 57% 29.89 in 10.0 mi South 13.8 mph - N/A   Scattered Clouds
7:45 PM 75.2 °F 62.6 °F 65% 29.90 in 10.0 mi SSE 11.5 mph - N/A   Scattered Clouds
8:45 PM 73.4 °F 62.6 °F 69% 29.92 in 10.0 mi SSE 5.8 mph - N/A   Mostly Cloudy
9:14 PM 73.4 °F 62.6 °F 69% 29.93 in 10.0 mi ESE 3.5 mph - N/A   Scattered Clouds
9:33 PM 73.4 °F 64.4 °F 73% 29.93 in 10.0 mi ESE 4.6 mph - N/A   Overcast
9:45 PM 73.4 °F 62.6 °F 69% 29.93 in 10.0 mi SE 4.6 mph - N/A   Overcast
9:54 PM 73.4 °F 62.6 °F 69% 29.93 in 10.0 mi SE 5.8 mph - N/A   Mostly Cloudy
10:14 PM 73.4 °F 62.6 °F 69% 29.93 in 10.0 mi SE 5.8 mph - N/A   Scattered Clouds
10:34 PM 73.4 °F 62.6 °F 69% 29.92 in 10.0 mi SE 5.8 mph - N/A   Clear
10:54 PM 73.4 °F 62.6 °F 69% 29.92 in 10.0 mi SSE 5.8 mph - N/A   Clear